This is the latest recevied weather packets stored in our database for station/object KW6V-15. If no packets are shown the sender has not sent any weather packets the latest 10 day(s).
| Time | Temp. | Humidity | Pressure | Rain* | Wind** | Luminosity | Snow |
|---|---|---|---|---|---|---|---|
| 1788505223 | 12.22° C | 91% | 1013.1 hPa | 0 mm | - | - | - |
| 1788503438 | 13.33° C | 91% | 1012.8 hPa | 0 mm | - | - | - |
| 1788501621 | 13.33° C | 91% | 1012.8 hPa | 0 mm | - | - | - |
| 1788499827 | 13.89° C | 91% | 1012.8 hPa | 0 mm | - | - | - |
| 1788498040 | 14.44° C | 91% | 1013 hPa | 0 mm | - | - | - |
| 1788496247 | 14.44° C | 90% | 1012.8 hPa | 0 mm | - | - | - |
| 1788494422 | 14.44° C | 90% | 1012.6 hPa | 0 mm | - | - | - |
| 1788492634 | 15.56° C | 91% | 1012.4 hPa | 0 mm | - | - | - |
| 1788490820 | 15.56° C | 90% | 1012.3 hPa | 0 mm | - | - | - |
| 1788489022 | 16.11° C | 90% | 1012.4 hPa | 0 mm | - | - | - |
| 1788487244 | 16.11° C | 89% | 1012.5 hPa | 0 mm | - | - | - |
| 1788485445 | 16.67° C | 89% | 1012.6 hPa | 0 mm | - | - | - |
| 1788483623 | 16.67° C | 88% | 1012.6 hPa | 0 mm | - | - | - |
| 1788481865 | 17.22° C | 88% | 1012.7 hPa | 0 mm | - | - | - |
| 1788480119 | 17.22° C | 88% | 1012.8 hPa | 0 mm | - | - | - |
| 1788478223 | 17.78° C | 88% | 1012.9 hPa | 0 mm | - | - | - |
| 1788476420 | 17.22° C | 90% | 1013.1 hPa | 0 mm | - | - | - |
| 1788474625 | 16.67° C | 92% | 1013.4 hPa | 0 mm | - | - | - |
| 1788472836 | 16.67° C | 92% | 1013.8 hPa | 0 mm | - | - | - |
| 1788471027 | 16.67° C | 93% | 1013.8 hPa | 0 mm | - | - | - |
| 1788469225 | 16.11° C | 93% | 1013.9 hPa | 0 mm | - | - | - |
| 1788467425 | 16.11° C | 93% | 1013.8 hPa | 0 mm | - | - | - |
| 1788465634 | 16.11° C | 93% | 1013.8 hPa | 0 mm | - | - | - |
| 1788463818 | 16.11° C | 93% | 1014.1 hPa | 0 mm | - | - | - |
| 1788462026 | 16.11° C | 93% | 1014.2 hPa | 0 mm | - | - | - |
* Rain latest hour (hover to see other rain measurements)
** Current wind speed in m/s (hover to see current wind gust speed)